www.pogodaiklimat.ru

Погода и климат >> Архив погоды >> Мексика >> Арриага


ПОГОДА в Арриаге

  • Прогноз погоды в Арриаге
  • Монитор погоды в Арриаге

АРХИВ ПОГОДЫ в Арриаге

Время (UTC), дата Ветер
(напр.,м/с)
 
Видим.   Явления Облачность Т
(С)
Тd
(С)
f
(%)
Тe
(С)
Тes
(С)
Комфортность P
(гПа)
Po
(гПа)
Тmin
(С)
Tmax
(С)
R
(мм)
R24
(мм)
S
(см)
09 13.02 С 2 1000 м ясно +26.2 +22.9 82 +35 +35 очень
душно
1013.4 1007.9
12 13.02 С 2 1000 м ясно +24.2 +21.1 83 +31 +31 очень
душно
1014.7 1009.1 +21.0 +38.0
15 13.02 С 2 5000 м 3/3 800 м
[Sc diur, vesp]
+25.7 +21.9 80 +33 +38 очень
душно
1017.4 1011.8
18 13.02 С 2 5000 м 3/3 800 м
[Sc diur, vesp]
+28.2 +24.3 79 +39 +51 опасность
солнечного
удара
1016.6 1011.0 +21.0 +29.8
21 13.02 С 2 5000 м 4/4 800 м
[Sc diur, vesp]
+28.6 +25.5 83 +42 +48 опасность
перегрева
1013.8 1008.2
00 14.02 С 2 3000 м 3/3 800 м
[Sc diur, vesp]
+26.0 +24.4 91 +36 +36 очень
душно
1012.7 1007.2 +21.0 +30.4
03 14.02 С 9 3000 м ясно +23.6 +19.8 79 +29 +29 душно 1014.3 1008.7
06 14.02 С 9 3000 м ясно +23.2 +19.1 78 +30 +30 очень
душно
1013.9 1008.3 +30.4
09 14.02 С 9 2000 м ясно +23.6 +21.9 90 +30 +30 очень
душно
1012.6 1007.0
12 14.02 С 9 3000 м ясно +23.8 +22.1 90 +31 +31 очень
душно
1011.9 1006.3 +21.0 +30.4
15 14.02 С 7 5000 м 1/1 840 м
[Cu hum]
+25.6 +21.9 80 +33 +35 очень
душно
1013.7 1008.1
18 14.02 С 5 5000 м ясно +31.2 +27.0 78 +49 +58 опасность
перегрева
1013.3 1007.7 +21.0 +32.4
03 15.02 штиль 0 1000 м ясно +28.4 +25.5 84 +42 +42 опасность
перегрева
1012.3 1006.8
06 15.02 штиль 0 1000 м ясно +25.8 +23.0 85 +34 +34 очень
душно
1013.1 1007.6 +21.0 +37.8
09 15.02 штиль 0 1000 м 5/5 1020 м
[Sc diur, vesp]
+24.6 +22.1 86 +32 +32 очень
душно
1011.9 1006.4
15 15.02 штиль 0 3000 м дым 8/0 2000 м
[Ac trans Cs]
+25.6 +23.7 89 +35 +41 очень
душно
1013.9 1008.3
18 15.02 штиль 0 3000 м дым 4/4 1020 м
[Sc diur, vesp]
+32.8 +29.0 80 +56 +70 опасность
перегрева
1013.7 1008.1 +23.0 +33.8
21 15.02 Ю 1 5000 м 3/3 800 м
[Cu hum]
+34.8 +30.0 76 +62 +69 опасность
перегрева
1009.5 1004.0
00 16.02 Ю 1 4000 м ясно +30.8 +26.7 79 +48 +48 опасность
перегрева
1009.2 1003.8 +23.0 +36.2
03 16.02 штиль 0 1000 м ясно +27.0 +24.0 84 +37 +37 очень
душно
1011.1 1005.6
06 16.02 штиль 0 1000 м ясно +24.6 +21.6 83 +31 +31 очень
душно
1011.4 1005.9 +23.0 +36.2
09 16.02 штиль 0 1000 м 3/0
[Ac lent]
+23.6 +21.3 87 +30 +30 очень
душно
1010.8 1005.2
12 16.02 штиль 0 1000 м 4/4 800 м
[Sc diur, vesp]
+22.2 +20.5 90 +29 +29 очень
душно
1010.7 1005.1 +19.0 +36.2
15 16.02 штиль 0 5000 м ясно +24.2 +21.8 86 +31 +40 очень
душно
1012.1 1006.5
18 16.02 Ю 1 5000 м 6/6 800 м
[Sc diur, vesp]
+32.0 +25.3 68 +46 +54 опасность
перегрева
1012.0 1006.4 +19.0 +33.6
00 17.02 штиль 0 5000 м 5/5 800 м
[Sc diur, vesp]
+29.2 +27.1 88 +46 +46 опасность
перегрева
1009.5 1004.0 +19.0 +35.0
03 17.02 штиль 0 100 м 4/4 800 м
[Sc diur, vesp]
+27.4 +25.2 88 +40 +40 очень
душно
1011.5 1006.0
06 17.02 штиль 0 5000 м 3/3 800 м
[Sc diur, vesp]
+26.2 +24.8 92 +37 +37 очень
душно
1012.3 1006.8 +19.0 +35.0
09 17.02 штиль 0 100 м 4/0 2000 м
[Ac As]
+25.0 +24.2 95 +34 +34 очень
душно
1011.2 1005.6
12 17.02 штиль 0 1000 м ясно +23.0 +22.4 96 +31 +31 очень
душно
1012.1 1006.5 +22.0 +35.0
15 17.02 штиль 0 5000 м 4/4 800 м
[Cu hum]
+27.2 +25.3 89 +39 +45 очень
душно
1013.8 1008.2
18 17.02 С 1 5000 м 6/6 800 м
[Sc diur, vesp]
+32.0 +29.2 85 +56 +64 опасность
перегрева
1013.4 1007.8 +22.0 +33.8
21 17.02 Ю 2 3000 м 5/5 840 м
[Sc diur, vesp]
+31.6 +26.3 74 +48 +53 опасность
перегрева
1010.9 1005.4
00 18.02 штиль 0 3000 м 4/4 840 м
[Sc diur, vesp]
+28.6 +25.9 85 +43 +43 опасность
перегрева
1011.1 1005.6 +22.0 +36.4
03 18.02 штиль 0 1000 м 6/6 840 м
[Sc diur, vesp]
+27.0 +26.7 98 +42 +42 опасность
перегрева
1013.0 1007.6
06 18.02 штиль 0 1000 м 5/5 840 м
[Sc diur, vesp]
+25.0 +23.9 94 +34 +34 очень
душно
1013.3 1007.8 +20.2 +36.4
09 18.02 штиль 0 1000 м 4/4 840 м
[Sc diur, vesp]
+23.6 +22.8 95 +31 +31 очень
душно
1012.4 1006.8
12 18.02 штиль 0 1000 м 3/3 840 м
[Sc diur, vesp]
+22.4 +21.6 95 +30 +30 очень
душно
1012.8 1007.2 +21.0 +36.4
15 18.02 штиль 0 3000 м 3/3 840 м
[Sc diur, vesp]
+26.2 +22.6 81 +35 +41 очень
душно
1014.3 1008.8
18 18.02 Ю 2 4000 м 4/4 840 м
[Sc diur, vesp]
+33.0 +27.8 74 +53 +63 опасность
перегрева
1013.7 1008.2 +21.0 +34.8
21 18.02 Ю 1 5000 м 6/6 800 м
[Sc diur, vesp]
+33.8 +29.3 77 +58 +63 опасность
перегрева
1011.2 1005.7
00 19.02 Ю 1 5000 м 3/3 800 м
[Sc diur, vesp]
+30.3 +27.3 84 +48 +48 опасность
перегрева
1011.2 1005.7 +21.0 +35.8
03 19.02 штиль 0 1000 м 3/3 800 м
[Sc diur, vesp]
+27.4 +24.1 82 +38 +38 очень
душно
1013.2 1007.7
06 19.02 штиль 0 1000 м ясно +24.9 +23.0 89 +33 +33 очень
душно
1013.8 1008.3 +21.0 +35.8
09 19.02 штиль 0 1000 м ясно +22.8 +20.2 85 +29 +29 очень
душно
1012.9 1007.3
12 19.02 штиль 0 1000 м ясно +21.5 +20.5 94 +27 +27 душно 1013.3 1007.7 +20.0 +35.8
15 19.02 штиль 0 5000 м ясно +25.0 +21.9 83 +32 +42 очень
душно
1014.8 1009.2
18 19.02 штиль 0 5000 м ясно +33.2 +28.8 78 +56 +80 опасность
перегрева
1013.9 1008.3 +20.0 +34.8
21 19.02 штиль 0 5000 м 4/0
[Cs]
+34.8 +29.3 73 +59 +71 опасность
перегрева
1010.9 1005.4
00 20.02 С 1 5000 м ясно +31.9 +27.3 77 +51 +51 опасность
перегрева
1010.4 1004.9 +20.0 +35.8
03 20.02 штиль 0 1000 м ясно +29.9 +26.9 84 +47 +47 опасность
перегрева
1011.9 1006.4

 

Местоположение метеостанции Арриага (Мексика): широта 16.23 долгота -93.90 высота над уровнем моря 48 м.

В архиве по умолчанию представлена погода в Арриаге за последнюю неделю. Архивные данные за месяц целиком и за предыдущие месяцы, начиная с января 2011 года, Вы можете получить, выбрав интересующий диапазон дат из раскрывающегося списка и нажав кнопку "Ввод!".


*Определитесь, кто Вы:
робот инопланетянин человек

Внимание! Время в таблицах - всемирное. Для получения местного времени необходимо прибавить поправку, которая равна -6 ч.

Смотрите также архив погоды в соседних городах и на ближайших метеорологических станциях:

Погода в Тустла-Гутьерресе (Мексика) (100 км)
Погода в Салина-Крусе (Мексика) (137 км)
Погода в Сан-Кристобаль-де-лас-Касасе (Мексика) (147 км)
Погода в Комитане (Мексика) (189 км)
Погода в Коацакоалькосе (Мексика) (218 км)
Погода в Вильяэрмосе (Мексика) (220 км)
Погода в Тапачуле (Мексика) (229 км)
Погода в Уэуэтенанго (Гватемала) (280 км)
Погода в Пуэрто-Анхеле (Мексика) (283 км)
Погода в Оахаке (Мексика) (313 км)

Пояснения к столбцам:

Ветер - указаны скорость ветра в м/с - средняя за 10 мин, порывы в срок и между сроками (в фигурных скобках) и направление, откуда дует ветер: С - северный, СВ - северо-восточный, В - восточный, ЮВ - юго-восточный, Ю - южный, ЮЗ - юго-западный, З - западный, СЗ - северо-западный.
Видимость - горизонтальная дальность видимости в метрах или километрах. При видимости от 1 до 10 км при отсутствии осадков обычно наблюдается дымка, при ухудшении видимости до 1 км и менее - туман. В сухую погоду видимость может ухудшаться дымом, пылью или мглою.
Явления - указаны атмосферные явления, наблюдавшиеся в срок или в последний час перед сроком; фигурными скобками обозначены явления, наблюдавшиеся между сроками (за 1-3 часа до срока); квадратными скобками обозначены град или гололедные отложения с указанием их диаметра в мм.
Облачность - указаны через наклонную черту общая и нижняя облачность в баллах и высота нижней границы облаков в метрах; квадратными скобками обозначены формы облаков: Ci - перистые, Cs - перисто-слоистые, Cc - перисто-кучевые, Ac - высококучевые, As - высокослоистые, Sc - слоисто-кучевые, Ns - слоисто-дождевые, Cu - кучевые, Cb - кучево-дождевые. Подробнее классификацию облаков см. в Атласе облаков (PDF).
T - Температура воздуха - температура, измеренная на высоте 2 м над землей.
Td - Температура точки росы - температура, при понижении до которой содержащийся в воздухе водяной пар достигнет насыщения.
f - Относительная влажность воздуха - влажноcть воздуха, измеренная на высоте 2 м над землей.
Te - Эффективная температура - температура, которую ощущает одетый по сезону человек в тени. Характеристика душности погоды. При расчете учитывается влияние влажности воздуха и скорости ветра на теплоощущения человека.
Tes - Эффективная температура на солнце - температура, которую ощущает человек, с поправкой на солнечный нагрев. Характеристика знойности погоды. Зависит от высоты солнца над горизонтом, облачности и скорости ветра. Ночью, в пасмурную погоду, а также при ветре 12 м/с и более поправка равна нулю.
P - Атмосферное давление - приведенное к уровню моря атмосферное давление.
Po - Атмосферное давление - измеренное на уровне метеостанции атмосферное давление.
Tmin - Минимальная температура - минимум температуры воздуха на высоте 2 м над землей.
Tmax - Максимальная температура - максимум температуры воздуха на высоте 2 м над землей.
R - Количество осадков - Количество выпавших осадков за период времени, мм. При наведении курсора мыши на число - период времени, за который выпало указанное количество осадков.
R24 - Количество осадков - Количество выпавших осадков за 24 часа, мм.
S - Снежный покров - Высота снежного покрова, см. При наведении курсора мыши на число - состояние снежного покрова и степень покрытия местности в баллах.